Information on these data can be found in provided Readme document
Contact Info: Zachary Fasnacht (zachary.fasnacht@ssaihq.com); Nickolay Krotkov (nickolay.a.krotkov@nasa.gov); Lok Lamsal (lok.lamsal@nasa.gov)

FillValue: -999.
ScaleFactor: 1e15
Units: molecules/cm^2

Date(yyyy-mm-dd),City,Country,LonCenter,LatCenter,BoundingCoordinates,Median,Q1,Q3,Mean,Baseline_Median,Baseline_Q1,Baseline_Q3,Baseline_Mean,NumGoodSamples,NumTotalSamples
2015-01-01,Dalian,China,121.6392,38.9208,[121.1392 38.4208 122.1392 39.4208],6.83,3.967,22.622,12.393,9.308,5.873,18.574,12.407,217.0,588.0
2015-01-02,Dalian,China,121.6392,38.9208,[121.1392 38.4208 122.1392 39.4208],10.354,4.247,23.456,13.746,10.122,5.782,18.633,12.447,187.0,590.0
2015-01-03,Dalian,China,121.6392,38.9208,[121.1392 38.4208 122.1392 39.4208],13.798,4.455,24.051,14.879,11.946,6.196,19.572,13.376,189.0,597.0
2015-01-04,Dalian,China,121.6392,38.9208,[121.1392 38.4208 122.1392 39.4208],11.664,4.3,23.9,14.297,11.079,5.76,19.682,12.896,218.0,603.0
2015-01-05,Dalian,China,121.6392,38.9208,[121.1392 38.4208 122.1392 39.4208],11.664,4.3,23.9,14.217,11.171,5.874,19.811,13.235,217.0,604.0
2015-01-06,Dalian,China,121.6392,38.9208,[121.1392 38.4208 122.1392 39.4208],12.88,4.514,23.9,14.563,10.746,5.387,19.477,12.708,240.0,590.0
2015-01-07,Dalian,China,121.6392,38.9208,[121.1392 38.4208 122.1392 39.4208],7.704,3.997,21.77,12.651,9.495,5.371,19.308,12.568,213.0,584.0
2015-01-08,Dalian,China,121.6392,38.9208,[121.1392 38.4208 122.1392 39.4208],7.299,4.097,20.811,12.254,8.906,5.111,19.205,12.242,230.0,583.0
2015-01-09,Dalian,China,121.6392,38.9208,[121.1392 38.4208 122.1392 39.4208],11.81,5.588,23.065,14.471,9.155,5.28,19.464,12.643,190.0,585.0
2015-01-10,Dalian,China,121.6392,38.9208,[121.1392 38.4208 122.1392 39.4208],14.608,5.785,23.456,15.225,10.849,5.614,20.952,13.46,162.0,544.0
2015-01-11,Dalian,China,121.6392,38.9208,[121.1392 38.4208 122.1392 39.4208],14.608,5.785,23.456,15.225,10.884,5.666,21.083,13.521,162.0,541.0
2015-01-12,Dalian,China,121.6392,38.9208,[121.1392 38.4208 122.1392 39.4208],8.603,5.172,20.762,12.575,9.806,5.543,20.91,13.138,149.0,551.0
2015-01-13,Dalian,China,121.6392,38.9208,[121.1392 38.4208 122.1392 39.4208],8.647,5.172,21.117,12.889,9.623,5.533,19.32,12.725,152.0,546.0
2015-01-14,Dalian,China,121.6392,38.9208,[121.1392 38.4208 122.1392 39.4208],15.62,5.462,23.269,15.305,10.5,5.654,21.786,13.841,118.0,547.0
2015-01-15,Dalian,China,121.6392,38.9208,[121.1392 38.4208 122.1392 39.4208],9.63,5.474,21.117,13.471,10.186,5.854,22.003,13.952,148.0,542.0
2015-01-16,Dalian,China,121.6392,38.9208,[121.1392 38.4208 122.1392 39.4208],8.603,5.008,16.425,11.845,9.535,5.769,20.61,13.426,129.0,548.0
2015-01-17,Dalian,China,121.6392,38.9208,[121.1392 38.4208 122.1392 39.4208],8.618,5.008,17.476,11.917,9.53,5.919,19.219,13.609,130.0,539.0
2015-01-18,Dalian,China,121.6392,38.9208,[121.1392 38.4208 122.1392 39.4208],8.078,4.604,10.124,9.238,9.177,5.715,17.237,12.844,114.0,539.0
2015-01-19,Dalian,China,121.6392,38.9208,[121.1392 38.4208 122.1392 39.4208],8.256,4.997,10.145,9.733,8.695,4.971,16.8,12.48,85.0,546.0
2015-01-20,Dalian,China,121.6392,38.9208,[121.1392 38.4208 122.1392 39.4208],8.133,4.711,10.145,9.262,8.724,5.018,16.92,12.213,112.0,553.0
2015-01-21,Dalian,China,121.6392,38.9208,[121.1392 38.4208 122.1392 39.4208],6.996,4.269,9.251,7.597,10.063,5.609,18.512,13.029,89.0,555.0
2015-01-22,Dalian,China,121.6392,38.9208,[121.1392 38.4208 122.1392 39.4208],6.996,4.269,9.251,7.597,10.473,5.639,17.954,12.95,89.0,543.0
2015-01-23,Dalian,China,121.6392,38.9208,[121.1392 38.4208 122.1392 39.4208],6.876,3.992,9.251,7.642,11.236,6.138,17.903,13.389,72.0,537.0
2015-01-24,Dalian,China,121.6392,38.9208,[121.1392 38.4208 122.1392 39.4208],5.929,4.604,8.618,7.074,10.496,6.008,17.222,12.586,107.0,538.0
2015-01-25,Dalian,China,121.6392,38.9208,[121.1392 38.4208 122.1392 39.4208],5.929,4.604,8.618,7.074,10.098,6.288,15.672,11.932,107.0,583.0
2015-01-26,Dalian,China,121.6392,38.9208,[121.1392 38.4208 122.1392 39.4208],6.996,4.997,10.145,9.569,10.343,6.247,15.436,12.179,136.0,586.0
2015-01-27,Dalian,China,121.6392,38.9208,[121.1392 38.4208 122.1392 39.4208],8.52,5.48,13.765,12.424,10.487,5.918,16.503,12.484,152.0,584.0
2015-01-28,Dalian,China,121.6392,38.9208,[121.1392 38.4208 122.1392 39.4208],8.256,5.411,12.527,11.836,10.972,6.236,15.671,12.82,152.0,591.0
2015-01-29,Dalian,China,121.6392,38.9208,[121.1392 38.4208 122.1392 39.4208],8.048,5.37,11.494,11.225,10.295,5.83,15.344,11.933,176.0,585.0
2015-01-30,Dalian,China,121.6392,38.9208,[121.1392 38.4208 122.1392 39.4208],6.996,5.31,16.974,12.341,9.956,5.744,15.088,11.579,146.0,587.0
2015-01-31,Dalian,China,121.6392,38.9208,[121.1392 38.4208 122.1392 39.4208],6.779,4.937,12.715,11.072,9.826,5.883,14.188,11.367,165.0,582.0
2015-02-01,Dalian,China,121.6392,38.9208,[121.1392 38.4208 122.1392 39.4208],6.763,4.937,12.527,10.995,9.986,6.012,14.622,11.093,164.0,590.0
2015-02-02,Dalian,China,121.6392,38.9208,[121.1392 38.4208 122.1392 39.4208],8.627,5.37,18.383,12.742,10.305,6.214,15.31,11.296,193.0,584.0
2015-02-03,Dalian,China,121.6392,38.9208,[121.1392 38.4208 122.1392 39.4208],8.627,5.37,18.383,12.742,10.475,6.422,15.402,11.326,193.0,583.0
2015-02-04,Dalian,China,121.6392,38.9208,[121.1392 38.4208 122.1392 39.4208],8.724,5.48,18.214,12.472,9.547,6.26,15.368,11.157,196.0,590.0
2015-02-05,Dalian,China,121.6392,38.9208,[121.1392 38.4208 122.1392 39.4208],8.27,5.411,17.728,12.035,9.128,5.813,16.243,11.272,223.0,598.0
2015-02-06,Dalian,China,121.6392,38.9208,[121.1392 38.4208 122.1392 39.4208],8.27,5.411,17.728,12.035,8.97,5.521,15.6,10.953,223.0,598.0
2015-02-07,Dalian,China,121.6392,38.9208,[121.1392 38.4208 122.1392 39.4208],9.257,5.48,18.214,12.456,9.465,5.037,16.244,11.206,245.0,588.0
2015-02-08,Dalian,China,121.6392,38.9208,[121.1392 38.4208 122.1392 39.4208],12.097,6.234,18.737,13.855,9.205,5.048,15.989,11.308,210.0,583.0
2015-02-09,Dalian,China,121.6392,38.9208,[121.1392 38.4208 122.1392 39.4208],12.097,6.234,18.737,13.855,9.226,4.892,15.489,11.023,210.0,584.0
2015-02-10,Dalian,China,121.6392,38.9208,[121.1392 38.4208 122.1392 39.4208],10.709,5.72,18.371,12.729,8.546,4.76,15.174,10.679,181.0,587.0
2015-02-11,Dalian,China,121.6392,38.9208,[121.1392 38.4208 122.1392 39.4208],9.257,5.508,17.292,11.146,8.299,4.863,14.317,10.228,154.0,546.0
2015-02-12,Dalian,China,121.6392,38.9208,[121.1392 38.4208 122.1392 39.4208],9.236,5.212,17.235,10.913,7.977,4.62,14.282,10.116,180.0,547.0
2015-02-13,Dalian,China,121.6392,38.9208,[121.1392 38.4208 122.1392 39.4208],10.241,5.508,17.728,11.469,9.882,4.909,14.464,10.616,156.0,556.0
2015-02-14,Dalian,China,121.6392,38.9208,[121.1392 38.4208 122.1392 39.4208],10.205,5.41,17.433,11.313,10.249,4.93,14.495,10.724,161.0,549.0
2015-02-15,Dalian,China,121.6392,38.9208,[121.1392 38.4208 122.1392 39.4208],12.91,6.246,18.371,12.565,10.973,5.192,15.131,11.328,142.0,547.0
2015-02-16,Dalian,China,121.6392,38.9208,[121.1392 38.4208 122.1392 39.4208],10.773,5.555,18.294,12.01,10.185,4.955,14.927,10.858,171.0,542.0
2015-02-17,Dalian,China,121.6392,38.9208,[121.1392 38.4208 122.1392 39.4208],6.724,5.15,12.179,9.672,9.911,5.255,13.783,10.748,142.0,549.0
2015-02-18,Dalian,China,121.6392,38.9208,[121.1392 38.4208 122.1392 39.4208],6.724,5.15,12.179,9.672,10.227,5.747,14.163,11.086,142.0,543.0
2015-02-19,Dalian,China,121.6392,38.9208,[121.1392 38.4208 122.1392 39.4208],6.695,4.467,14.162,10.146,10.709,5.855,14.841,11.595,112.0,543.0
2015-02-20,Dalian,China,121.6392,38.9208,[121.1392 38.4208 122.1392 39.4208],6.724,5.054,16.815,11.058,9.715,5.891,14.558,11.265,85.0,549.0
2015-02-21,Dalian,China,121.6392,38.9208,[121.1392 38.4208 122.1392 39.4208],8.182,5.15,16.815,11.126,9.755,5.709,14.417,11.085,92.0,557.0
2015-02-22,Dalian,China,121.6392,38.9208,[121.1392 38.4208 122.1392 39.4208],5.84,4.625,11.045,9.197,9.168,5.688,12.672,10.284,70.0,556.0
2015-02-23,Dalian,China,121.6392,38.9208,[121.1392 38.4208 122.1392 39.4208],8.182,5.15,22.971,14.353,9.701,6.511,13.985,11.199,93.0,543.0
2015-02-24,Dalian,China,121.6392,38.9208,[121.1392 38.4208 122.1392 39.4208],8.182,5.15,22.971,14.353,9.944,6.988,14.719,11.794,93.0,538.0
2015-02-25,Dalian,China,121.6392,38.9208,[121.1392 38.4208 122.1392 39.4208],5.542,4.138,11.05,10.842,9.217,6.84,13.101,11.431,130.0,537.0
2015-02-26,Dalian,China,121.6392,38.9208,[121.1392 38.4208 122.1392 39.4208],5.542,4.138,11.05,10.842,8.73,6.664,12.694,10.968,130.0,582.0
2015-02-27,Dalian,China,121.6392,38.9208,[121.1392 38.4208 122.1392 39.4208],10.773,4.984,20.741,13.926,9.581,6.63,14.555,11.482,139.0,584.0
2015-02-28,Dalian,China,121.6392,38.9208,[121.1392 38.4208 122.1392 39.4208],12.179,5.054,21.957,15.174,10.226,6.765,16.264,12.375,167.0,583.0
2015-03-01,Dalian,China,121.6392,38.9208,[121.1392 38.4208 122.1392 39.4208],13.037,5.054,22.003,15.401,10.257,6.568,16.085,12.245,162.0,592.0
2015-03-02,Dalian,China,121.6392,38.9208,[121.1392 38.4208 122.1392 39.4208],10.773,4.613,21.889,14.32,9.468,6.192,15.572,11.712,186.0,588.0
2015-03-03,Dalian,China,121.6392,38.9208,[121.1392 38.4208 122.1392 39.4208],17.265,4.357,22.011,15.544,10.7,6.426,15.519,11.908,157.0,588.0
2015-03-04,Dalian,China,121.6392,38.9208,[121.1392 38.4208 122.1392 39.4208],6.426,4.357,20.602,13.115,8.366,6.054,14.958,11.366,189.0,583.0
2015-03-05,Dalian,China,121.6392,38.9208,[121.1392 38.4208 122.1392 39.4208],6.426,4.357,20.602,13.115,8.19,5.883,15.036,11.162,189.0,590.0
2015-03-06,Dalian,China,121.6392,38.9208,[121.1392 38.4208 122.1392 39.4208],8.356,4.805,19.138,12.676,8.247,5.558,14.578,10.625,219.0,584.0
2015-03-07,Dalian,China,121.6392,38.9208,[121.1392 38.4208 122.1392 39.4208],8.356,4.805,19.138,12.676,8.247,5.589,14.576,10.623,219.0,584.0
2015-03-08,Dalian,China,121.6392,38.9208,[121.1392 38.4208 122.1392 39.4208],9.025,5.261,18.632,12.389,8.375,5.296,14.164,10.355,242.0,590.0
2015-03-09,Dalian,China,121.6392,38.9208,[121.1392 38.4208 122.1392 39.4208],9.292,5.407,18.632,12.419,8.468,5.372,14.17,10.387,263.0,599.0
2015-03-10,Dalian,China,121.6392,38.9208,[121.1392 38.4208 122.1392 39.4208],8.373,5.246,16.362,11.026,8.683,5.01,13.568,9.807,240.0,600.0
2015-03-11,Dalian,China,121.6392,38.9208,[121.1392 38.4208 122.1392 39.4208],8.434,5.261,16.362,11.086,7.932,4.908,12.621,9.351,255.0,587.0
2015-03-12,Dalian,China,121.6392,38.9208,[121.1392 38.4208 122.1392 39.4208],10.268,6.099,18.088,12.391,8.547,5.16,12.906,9.737,218.0,583.0
2015-03-13,Dalian,China,121.6392,38.9208,[121.1392 38.4208 122.1392 39.4208],10.653,6.426,19.056,13.827,8.951,5.326,13.823,10.501,237.0,584.0
2015-03-14,Dalian,China,121.6392,38.9208,[121.1392 38.4208 122.1392 39.4208],9.025,5.776,14.979,12.387,8.123,4.993,12.734,9.952,199.0,586.0
2015-03-15,Dalian,China,121.6392,38.9208,[121.1392 38.4208 122.1392 39.4208],8.43,5.731,13.417,11.138,7.38,5.05,10.901,8.803,171.0,545.0
2015-03-16,Dalian,China,121.6392,38.9208,[121.1392 38.4208 122.1392 39.4208],8.738,5.744,13.417,11.113,7.485,5.05,11.083,8.985,200.0,544.0
2015-03-17,Dalian,China,121.6392,38.9208,[121.1392 38.4208 122.1392 39.4208],8.938,5.877,13.417,11.213,7.664,5.326,11.174,9.048,187.0,552.0
2015-03-18,Dalian,China,121.6392,38.9208,[121.1392 38.4208 122.1392 39.4208],9.025,6.037,13.787,11.34,7.611,5.172,11.237,9.043,214.0,546.0
2015-03-19,Dalian,China,121.6392,38.9208,[121.1392 38.4208 122.1392 39.4208],10.47,7.448,15.49,12.819,7.931,5.54,11.889,9.249,182.0,542.0
2015-03-20,Dalian,China,121.6392,38.9208,[121.1392 38.4208 122.1392 39.4208],10.764,8.017,14.907,13.131,8.474,6.098,12.075,9.867,213.0,539.0
2015-03-21,Dalian,China,121.6392,38.9208,[121.1392 38.4208 122.1392 39.4208],10.764,8.035,15.49,13.716,9.011,6.197,12.522,10.258,183.0,547.0
2015-03-22,Dalian,China,121.6392,38.9208,[121.1392 38.4208 122.1392 39.4208],10.012,7.393,14.907,12.878,8.776,5.98,12.417,10.075,198.0,543.0
2015-03-23,Dalian,China,121.6392,38.9208,[121.1392 38.4208 122.1392 39.4208],10.455,6.657,15.374,13.408,8.725,5.908,12.393,10.101,168.0,543.0
2015-03-24,Dalian,China,121.6392,38.9208,[121.1392 38.4208 122.1392 39.4208],10.005,6.357,15.374,13.422,8.595,6.028,12.287,10.149,147.0,547.0
2015-03-25,Dalian,China,121.6392,38.9208,[121.1392 38.4208 122.1392 39.4208],10.005,6.357,15.374,13.422,8.78,6.208,12.35,10.221,147.0,554.0
2015-03-26,Dalian,China,121.6392,38.9208,[121.1392 38.4208 122.1392 39.4208],10.005,6.554,14.907,13.521,9.074,6.369,12.296,10.378,132.0,556.0
2015-03-27,Dalian,China,121.6392,38.9208,[121.1392 38.4208 122.1392 39.4208],9.625,6.309,14.571,12.707,8.646,5.926,12.024,9.849,156.0,544.0
2015-03-28,Dalian,China,121.6392,38.9208,[121.1392 38.4208 122.1392 39.4208],8.384,5.826,13.062,10.138,8.137,5.622,11.453,9.063,137.0,538.0
2015-03-29,Dalian,China,121.6392,38.9208,[121.1392 38.4208 122.1392 39.4208],8.523,5.826,12.854,10.118,8.155,5.626,11.308,9.025,140.0,534.0
2015-03-30,Dalian,China,121.6392,38.9208,[121.1392 38.4208 122.1392 39.4208],8.523,5.826,12.854,10.118,8.081,5.546,11.37,9.053,140.0,579.0
2015-03-31,Dalian,China,121.6392,38.9208,[121.1392 38.4208 122.1392 39.4208],6.554,3.693,10.985,8.26,7.566,5.122,10.889,8.637,149.0,580.0
2015-04-01,Dalian,China,121.6392,38.9208,[121.1392 38.4208 122.1392 39.4208],7.393,3.952,11.473,8.811,7.671,5.214,10.895,8.666,169.0,579.0
2015-04-02,Dalian,China,121.6392,38.9208,[121.1392 38.4208 122.1392 39.4208],7.2,3.888,11.118,8.447,7.751,5.262,10.846,8.641,145.0,589.0
2015-04-03,Dalian,China,121.6392,38.9208,[121.1392 38.4208 122.1392 39.4208],7.393,3.952,11.147,8.717,7.734,5.349,10.987,8.749,165.0,585.0
2015-04-04,Dalian,China,121.6392,38.9208,[121.1392 38.4208 122.1392 39.4208],5.707,3.351,8.662,6.527,7.434,5.305,10.17,8.224,134.0,579.0
2015-04-05,Dalian,China,121.6392,38.9208,[121.1392 38.4208 122.1392 39.4208],5.707,3.351,8.662,6.527,7.391,5.26,10.236,8.085,134.0,571.0
2015-04-06,Dalian,China,121.6392,38.9208,[121.1392 38.4208 122.1392 39.4208],4.868,2.907,9.344,6.641,7.382,5.33,10.421,8.215,119.0,576.0
2015-04-07,Dalian,China,121.6392,38.9208,[121.1392 38.4208 122.1392 39.4208],7.639,3.903,10.514,7.894,7.548,5.043,10.581,8.249,152.0,575.0
2015-04-08,Dalian,China,121.6392,38.9208,[121.1392 38.4208 122.1392 39.4208],7.639,3.903,10.514,7.894,7.708,5.034,10.599,8.196,152.0,576.0
2015-04-09,Dalian,China,121.6392,38.9208,[121.1392 38.4208 122.1392 39.4208],5.779,2.907,9.78,6.852,6.969,4.492,10.263,7.706,182.0,583.0
2015-04-10,Dalian,China,121.6392,38.9208,[121.1392 38.4208 122.1392 39.4208],6.536,3.256,10.167,7.159,6.677,4.483,10.136,7.581,210.0,589.0
2015-04-11,Dalian,China,121.6392,38.9208,[121.1392 38.4208 122.1392 39.4208],6.726,2.907,10.295,7.248,7.074,4.494,10.3,7.753,186.0,587.0
2015-04-12,Dalian,China,121.6392,38.9208,[121.1392 38.4208 122.1392 39.4208],6.726,2.907,10.295,7.248,7.119,4.565,10.438,7.887,186.0,575.0
2015-04-13,Dalian,China,121.6392,38.9208,[121.1392 38.4208 122.1392 39.4208],6.41,2.907,10.385,7.181,6.97,4.402,10.466,7.745,183.0,573.0
2015-04-14,Dalian,China,121.6392,38.9208,[121.1392 38.4208 122.1392 39.4208],8.912,3.775,11.165,8.274,7.9,4.583,10.612,8.066,218.0,571.0
2015-04-15,Dalian,China,121.6392,38.9208,[121.1392 38.4208 122.1392 39.4208],10.204,6.536,11.797,9.599,7.934,4.926,10.84,8.264,180.0,574.0
2015-04-16,Dalian,China,121.6392,38.9208,[121.1392 38.4208 122.1392 39.4208],10.343,6.075,11.874,9.479,7.859,4.72,10.963,8.318,149.0,534.0
2015-04-17,Dalian,China,121.6392,38.9208,[121.1392 38.4208 122.1392 39.4208],10.204,6.075,11.785,9.419,7.997,4.809,10.983,8.4,146.0,492.0
2015-04-18,Dalian,China,121.6392,38.9208,[121.1392 38.4208 122.1392 39.4208],9.895,6.961,11.627,9.295,7.951,5.031,10.852,8.352,163.0,501.0
2015-04-19,Dalian,China,121.6392,38.9208,[121.1392 38.4208 122.1392 39.4208],9.656,6.778,11.572,9.173,7.741,5.116,10.53,8.262,188.0,501.0
2015-04-20,Dalian,China,121.6392,38.9208,[121.1392 38.4208 122.1392 39.4208],9.656,6.778,11.459,9.146,7.277,5.027,9.831,7.91,206.0,501.0
2015-04-21,Dalian,China,121.6392,38.9208,[121.1392 38.4208 122.1392 39.4208],9.393,6.726,11.197,9.009,7.217,5.017,9.873,7.874,222.0,496.0
2015-04-22,Dalian,China,121.6392,38.9208,[121.1392 38.4208 122.1392 39.4208],8.965,6.304,11.062,8.62,7.111,5.175,9.736,7.801,189.0,497.0
2015-04-23,Dalian,China,121.6392,38.9208,[121.1392 38.4208 122.1392 39.4208],7.688,4.887,10.713,7.957,6.915,4.855,9.691,7.637,219.0,488.0
2015-04-24,Dalian,China,121.6392,38.9208,[121.1392 38.4208 122.1392 39.4208],8.856,6.095,11.002,8.793,7.192,5.142,9.579,7.793,200.0,488.0
2015-04-25,Dalian,China,121.6392,38.9208,[121.1392 38.4208 122.1392 39.4208],8.575,5.827,10.766,8.624,7.417,5.245,10.193,8.002,172.0,495.0
2015-04-26,Dalian,China,121.6392,38.9208,[121.1392 38.4208 122.1392 39.4208],7.996,5.603,10.72,8.369,7.126,5.049,9.759,7.732,192.0,505.0
2015-04-27,Dalian,China,121.6392,38.9208,[121.1392 38.4208 122.1392 39.4208],7.503,4.887,10.639,8.0,7.164,5.012,9.69,7.684,218.0,505.0
2015-04-28,Dalian,China,121.6392,38.9208,[121.1392 38.4208 122.1392 39.4208],7.996,5.05,10.874,8.488,7.328,5.109,9.799,7.89,240.0,496.0
2015-04-29,Dalian,China,121.6392,38.9208,[121.1392 38.4208 122.1392 39.4208],7.073,4.51,10.034,7.516,6.922,5.022,9.21,7.468,205.0,493.0
2015-04-30,Dalian,China,121.6392,38.9208,[121.1392 38.4208 122.1392 39.4208],6.324,4.265,9.482,7.066,6.779,5.002,9.018,7.336,231.0,494.0
2015-05-01,Dalian,China,121.6392,38.9208,[121.1392 38.4208 122.1392 39.4208],6.324,4.265,9.482,7.066,6.774,4.949,8.866,7.222,231.0,540.0
2015-05-02,Dalian,China,121.6392,38.9208,[121.1392 38.4208 122.1392 39.4208],6.245,4.244,8.856,6.962,6.628,4.882,8.641,7.102,241.0,581.0
2015-05-03,Dalian,China,121.6392,38.9208,[121.1392 38.4208 122.1392 39.4208],5.255,3.796,7.688,6.254,6.441,4.818,8.285,6.879,227.0,593.0
2015-05-04,Dalian,China,121.6392,38.9208,[121.1392 38.4208 122.1392 39.4208],4.887,3.679,7.441,6.122,6.219,4.638,8.13,6.733,202.0,635.0
2015-05-05,Dalian,China,121.6392,38.9208,[121.1392 38.4208 122.1392 39.4208],4.988,3.679,7.996,6.393,6.187,4.63,8.049,6.704,208.0,631.0
2015-05-06,Dalian,China,121.6392,38.9208,[121.1392 38.4208 122.1392 39.4208],4.805,3.625,8.027,6.445,6.311,4.765,8.309,6.827,210.0,627.0
2015-05-07,Dalian,China,121.6392,38.9208,[121.1392 38.4208 122.1392 39.4208],4.795,3.676,7.571,6.328,6.147,4.674,8.178,6.733,223.0,622.0
2015-05-08,Dalian,China,121.6392,38.9208,[121.1392 38.4208 122.1392 39.4208],4.808,3.49,9.156,6.655,6.096,4.606,8.241,6.647,193.0,632.0
2015-05-09,Dalian,China,121.6392,38.9208,[121.1392 38.4208 122.1392 39.4208],5.783,4.194,9.156,7.013,6.255,4.682,8.35,6.715,211.0,627.0
2015-05-10,Dalian,China,121.6392,38.9208,[121.1392 38.4208 122.1392 39.4208],5.691,4.089,9.156,6.972,6.398,4.704,8.345,6.775,222.0,627.0
2015-05-11,Dalian,China,121.6392,38.9208,[121.1392 38.4208 122.1392 39.4208],5.93,4.251,9.78,7.403,6.396,4.502,8.46,6.796,212.0,632.0
2015-05-12,Dalian,China,121.6392,38.9208,[121.1392 38.4208 122.1392 39.4208],6.676,4.528,9.875,7.682,6.037,4.357,8.297,6.573,214.0,641.0
2015-05-13,Dalian,China,121.6392,38.9208,[121.1392 38.4208 122.1392 39.4208],5.928,4.425,8.714,6.876,5.999,4.43,8.063,6.451,217.0,641.0
2015-05-14,Dalian,China,121.6392,38.9208,[121.1392 38.4208 122.1392 39.4208],5.93,4.425,8.66,6.847,5.697,4.148,7.873,6.2,238.0,628.0
2015-05-15,Dalian,China,121.6392,38.9208,[121.1392 38.4208 122.1392 39.4208],6.508,4.866,9.218,7.278,5.885,4.268,8.087,6.381,212.0,622.0
2015-05-16,Dalian,China,121.6392,38.9208,[121.1392 38.4208 122.1392 39.4208],5.798,4.263,8.252,6.664,5.646,4.124,7.676,6.19,250.0,621.0
2015-05-17,Dalian,China,121.6392,38.9208,[121.1392 38.4208 122.1392 39.4208],5.886,4.277,8.432,6.757,5.664,4.038,7.623,6.103,240.0,625.0
2015-05-18,Dalian,China,121.6392,38.9208,[121.1392 38.4208 122.1392 39.4208],5.928,4.304,8.714,6.918,5.462,3.902,7.487,6.012,217.0,573.0
2015-05-19,Dalian,China,121.6392,38.9208,[121.1392 38.4208 122.1392 39.4208],5.886,4.251,8.432,6.728,5.373,3.84,7.32,5.906,248.0,536.0
2015-05-20,Dalian,China,121.6392,38.9208,[121.1392 38.4208 122.1392 39.4208],5.237,3.927,7.372,5.988,5.172,3.794,7.164,5.78,259.0,543.0
2015-05-21,Dalian,China,121.6392,38.9208,[121.1392 38.4208 122.1392 39.4208],5.054,3.738,7.214,5.702,5.073,3.701,7.186,5.629,265.0,541.0
2015-05-22,Dalian,China,121.6392,38.9208,[121.1392 38.4208 122.1392 39.4208],5.114,3.834,7.214,5.738,5.084,3.732,7.175,5.596,252.0,541.0
2015-05-23,Dalian,China,121.6392,38.9208,[121.1392 38.4208 122.1392 39.4208],4.86,3.525,6.847,5.533,5.032,3.691,7.137,5.576,281.0,536.0
2015-05-24,Dalian,China,121.6392,38.9208,[121.1392 38.4208 122.1392 39.4208],4.332,3.394,6.178,5.076,4.887,3.618,6.901,5.43,252.0,540.0
2015-05-25,Dalian,China,121.6392,38.9208,[121.1392 38.4208 122.1392 39.4208],4.332,3.322,6.178,5.08,4.757,3.581,6.497,5.224,243.0,531.0
2015-05-26,Dalian,China,121.6392,38.9208,[121.1392 38.4208 122.1392 39.4208],4.263,3.279,5.798,4.718,4.737,3.523,6.398,5.129,245.0,532.0
2015-05-27,Dalian,China,121.6392,38.9208,[121.1392 38.4208 122.1392 39.4208],4.434,3.482,5.895,4.767,4.988,3.633,6.64,5.266,248.0,539.0
2015-05-28,Dalian,China,121.6392,38.9208,[121.1392 38.4208 122.1392 39.4208],4.332,3.408,5.723,4.719,4.719,3.504,6.468,5.117,223.0,544.0
2015-05-29,Dalian,China,121.6392,38.9208,[121.1392 38.4208 122.1392 39.4208],4.332,3.408,5.692,4.824,4.896,3.567,6.612,5.261,228.0,544.0
2015-05-30,Dalian,China,121.6392,38.9208,[121.1392 38.4208 122.1392 39.4208],4.543,3.482,5.98,5.13,4.775,3.545,6.381,5.145,243.0,533.0
2015-05-31,Dalian,China,121.6392,38.9208,[121.1392 38.4208 122.1392 39.4208],4.795,3.501,6.209,5.333,4.918,3.613,6.526,5.249,205.0,529.0
2015-06-01,Dalian,China,121.6392,38.9208,[121.1392 38.4208 122.1392 39.4208],4.981,3.525,6.118,5.338,4.873,3.629,6.347,5.176,228.0,530.0
2015-06-02,Dalian,China,121.6392,38.9208,[121.1392 38.4208 122.1392 39.4208],4.981,3.525,6.118,5.338,4.974,3.654,6.401,5.236,228.0,575.0
2015-06-03,Dalian,China,121.6392,38.9208,[121.1392 38.4208 122.1392 39.4208],4.981,3.525,6.118,5.305,4.997,3.716,6.418,5.267,211.0,579.0
2015-06-04,Dalian,China,121.6392,38.9208,[121.1392 38.4208 122.1392 39.4208],5.101,3.667,6.223,5.456,5.034,3.73,6.506,5.285,194.0,591.0
2015-06-05,Dalian,China,121.6392,38.9208,[121.1392 38.4208 122.1392 39.4208],5.628,3.991,7.605,6.406,5.049,3.754,6.499,5.368,203.0,600.0
2015-06-06,Dalian,China,121.6392,38.9208,[121.1392 38.4208 122.1392 39.4208],5.628,4.008,7.854,6.442,5.102,3.827,6.751,5.512,214.0,593.0
2015-06-07,Dalian,China,121.6392,38.9208,[121.1392 38.4208 122.1392 39.4208],5.931,4.795,8.891,6.886,5.211,4.024,7.024,5.651,201.0,592.0
2015-06-08,Dalian,China,121.6392,38.9208,[121.1392 38.4208 122.1392 39.4208],5.955,4.795,8.891,6.869,5.257,4.034,7.221,5.683,204.0,588.0
2015-06-09,Dalian,China,121.6392,38.9208,[121.1392 38.4208 122.1392 39.4208],5.98,4.795,8.891,6.874,5.043,3.899,7.071,5.53,202.0,598.0
2015-06-10,Dalian,China,121.6392,38.9208,[121.1392 38.4208 122.1392 39.4208],5.628,4.087,7.697,6.476,5.108,3.854,6.954,5.599,212.0,593.0
2015-06-11,Dalian,China,121.6392,38.9208,[121.1392 38.4208 122.1392 39.4208],5.588,3.842,8.389,6.485,5.093,3.901,6.845,5.558,194.0,591.0
2015-06-12,Dalian,China,121.6392,38.9208,[121.1392 38.4208 122.1392 39.4208],5.588,3.842,8.389,6.454,5.088,3.924,6.888,5.562,200.0,600.0
2015-06-13,Dalian,China,121.6392,38.9208,[121.1392 38.4208 122.1392 39.4208],5.577,3.745,7.862,6.28,4.987,3.829,6.591,5.379,196.0,608.0
2015-06-14,Dalian,China,121.6392,38.9208,[121.1392 38.4208 122.1392 39.4208],5.382,3.568,6.845,5.819,5.041,3.83,6.529,5.391,206.0,609.0
2015-06-15,Dalian,China,121.6392,38.9208,[121.1392 38.4208 122.1392 39.4208],5.415,3.701,6.999,5.858,5.028,3.811,6.573,5.392,221.0,596.0
2015-06-16,Dalian,China,121.6392,38.9208,[121.1392 38.4208 122.1392 39.4208],5.27,3.363,7.697,5.984,5.003,3.759,6.772,5.426,198.0,590.0
2015-06-17,Dalian,China,121.6392,38.9208,[121.1392 38.4208 122.1392 39.4208],5.224,3.317,7.515,5.945,5.015,3.738,6.713,5.425,201.0,591.0
2015-06-18,Dalian,China,121.6392,38.9208,[121.1392 38.4208 122.1392 39.4208],5.367,3.568,8.069,6.18,4.975,3.726,6.839,5.433,187.0,596.0